[[{"header":{"parameterUnit":"m.s-1","parameterCategory":1,"la1":30.2991,"la2":30.254,"lo1":-89.0895,"lo2":-89.0444,"dy":0.0017,"dx":0.0017,"nx":28,"ny":28,"refTime":"2025-11-19T09:00:00:Z","depth":0,"parameterNumber":2,"parameterNumberName":"U-component_of_WINDS"},"data":[0,0,0,0,0,0,0,0,0,0,0,0,0,0,0,0,0,0,0,0,0,0,0,0,0,0,0,0,0,0,0,0,0,0,0,0,0,0,0,0,0,0,0,0,0,0,0,0,0,0,0,0,0,0,0,0,0,0,-0.615,-0.615,0,-0.6161,-0.6161,-0.6161,-0.6112,-0.6111,-0.6109,-0.6108,-0.6121,-0.6123,-0.6124,0,0,0,0,0,0,0,0,0,0,0,0,0,-0.6089,-0.609,-0.615,-0.615,-0.615,-0.6161,-0.6161,-0.6161,-0.6112,-0.6111,-0.6109,-0.6107,-0.612,-0.6122,-0.6124,0,0,0,0,0,0,0,0,0,0,0,0,0,-0.6109,-0.6091,-0.615,-0.6127,-0.6125,-0.6161,-0.6161,-0.6161,-0.6113,-0.6111,-0.6108,-0.6106,-0.612,-0.6122,-0.6125,-0.6183,0,0,-0.6132,-0.6134,0,0,0,0,0,0,0,0,-0.6108,-0.6112,-0.613,-0.6128,-0.6126,-0.6133,-0.6144,-0.6169,-0.6113,-0.6117,-0.6108,-0.6105,-0.6127,-0.6129,-0.6135,-0.6184,-0.6185,-0.6133,-0.6134,-0.6135,-0.6136,0,0,0,0,0,0,0,-0.6107,-0.6111,-0.6154,-0.613,-0.6128,-0.6117,-0.6118,-0.6149,-0.6134,-0.6117,-0.6113,-0.6115,-0.6125,-0.6133,-0.6135,-0.6185,-0.6133,-0.6135,-0.6136,-0.6137,-0.6283,-0.6285,0,0,0,0,0,0,-0.6108,-0.611,-0.6154,-0.6154,-0.6112,-0.612,-0.612,-0.6133,-0.6134,-0.6132,-0.6117,-0.6113,-0.613,-0.6133,-0.6136,-0.6205,-0.6135,-0.6138,-0.6139,-0.6281,-0.6284,-0.6286,0,0,0,0,0,0,-0.6107,-0.6113,-0.6153,-0.6131,-0.6136,-0.6123,-0.6138,-0.6134,-0.6142,-0.6134,-0.6131,-0.6127,-0.6128,-0.6132,-0.6172,-0.6204,-0.6139,-0.6141,-0.6278,-0.6282,-0.6285,-0.6343,0,0,0,0,0,0,-0.6106,-0.6112,-0.6134,-0.6132,-0.6137,-0.6189,-0.614,-0.6136,-0.6146,-0.6141,-0.6143,-0.6141,-0.6127,-0.6169,-0.6175,-0.6207,-0.6143,-0.6275,-0.628,-0.6284,-0.6338,-0.6348,-0.6356,0,0,0,0,0,-0.6104,-0.615,-0.6135,-0.6141,-0.6163,-0.619,-0.6193,-0.6176,-0.6149,-0.6171,-0.6166,-0.6141,-0.62,-0.6173,-0.6179,-0.6213,-0.6273,-0.6278,-0.6284,-0.6334,-0.6346,-0.6356,0,0,0,0,0,0,-0.6156,-0.6149,-0.6133,-0.618,-0.6186,-0.6182,-0.6209,-0.6189,-0.6203,-0.6198,-0.6176,-0.6177,-0.6221,-0.6221,-0.6191,-0.627,-0.6232,-0.6239,-0.6268,-0.628,-0.6289,-0.6287,-0.6145,0,0,0,0,0,-0.6173,-0.6195,-0.6188,-0.623,-0.6234,-0.6221,-0.6233,-0.6218,-0.6224,-0.6227,-0.6225,-0.6232,-0.6252,-0.6266,-0.6284,-0.6338,-0.6338,-0.6365,-0.6374,-0.6381,-0.6387,-0.6417,-0.6428,-0.6304,-0.6304,-0.6304,0,0,-0.6208,-0.6207,-0.6222,-0.6241,-0.6244,-0.6268,-0.6224,-0.6251,-0.6269,-0.6231,-0.6268,-0.6268,-0.6275,-0.6322,-0.6343,-0.6323,-0.6422,-0.6388,-0.6394,-0.6396,-0.6423,-0.6435,-0.6446,-0.6307,-0.6307,-0.6306,0,0,-0.6284,-0.6286,-0.6321,-0.6326,-0.6331,-0.6322,-0.6331,-0.6331,-0.6329,-0.6366,-0.6338,-0.636,-0.6395,-0.6401,-0.6409,-0.649,-0.6468,-0.6497,-0.6545,-0.6573,-0.6583,-0.6592,-0.6621,-0.6631,-0.6503,-0.6503,-0.6503,0,-0.6327,-0.6361,-0.6342,-0.6371,-0.638,-0.6348,-0.6384,-0.6389,-0.6401,-0.6409,-0.6387,-0.6431,-0.6434,-0.6482,-0.6502,-0.651,-0.6519,-0.6496,-0.6583,-0.6592,-0.6599,-0.6627,-0.6638,-0.6507,-0.6506,-0.6506,-0.6506,0,-0.6414,-0.6439,-0.6467,-0.6478,-0.6491,-0.6524,-0.651,-0.6526,-0.6511,-0.6505,-0.6544,-0.6546,-0.6565,-0.6576,-0.6562,-0.6623,-0.6611,-0.6587,-0.6548,-0.6615,-0.664,-0.6651,-0.6512,-0.651,-0.6509,-0.6508,0,0,-0.6522,-0.6523,-0.6534,-0.6539,-0.6544,-0.6563,-0.6595,-0.6612,-0.6626,-0.6636,-0.6662,-0.6694,-0.6672,-0.6681,-0.6668,-0.6694,-0.6758,-0.6666,-0.6666,-0.6683,-0.6826,-0.6843,-0.6855,-0.6744,-0.6746,-0.6747,-0.6825,0,-0.6596,-0.6649,-0.6634,-0.6688,-0.671,-0.6681,-0.6709,-0.6715,-0.6712,-0.6731,-0.6727,-0.675,-0.6719,-0.6724,-0.6748,-0.6745,-0.6786,-0.6739,-0.6769,-0.677,-0.6767,-0.6869,-0.6887,-0.696,-0.6835,-0.6837,-0.6838,0,-0.6689,-0.6702,-0.6759,-0.676,-0.6769,-0.6794,-0.681,-0.6829,-0.6837,-0.6832,-0.6843,-0.6825,-0.6858,-0.682,-0.6865,-0.6834,-0.6846,-0.6846,-0.6849,-0.685,-0.6807,-0.6872,-0.6983,-0.6993,-0.6853,-0.6852,-0.6851,0,-0.6762,-0.6794,-0.6831,-0.6837,-0.684,-0.6858,-0.6861,-0.6866,-0.6878,-0.6893,-0.69,-0.6919,-0.6928,-0.6944,-0.6932,-0.6905,-0.6979,-0.694,-0.6977,-0.6977,-0.6992,-0.6991,-0.7106,-0.7002,-0.7001,-0.7001,-0.7001,0,-0.6845,-0.6881,-0.6864,-0.6887,-0.6926,-0.6909,-0.6949,-0.6948,-0.6953,-0.6977,-0.6953,-0.6976,-0.6959,-0.6981,-0.6973,-0.7012,-0.7017,-0.7014,-0.7011,-0.7016,-0.7016,-0.7022,-0.7016,-0.7004,-0.7003,-0.7003,-0.7002,0,-0.6932,-0.6922,-0.6961,-0.6961,-0.6962,-0.6991,-0.6992,-0.7014,-0.7009,-0.7039,-0.7045,-0.7038,-0.7062,-0.7052,-0.7079,-0.7073,-0.7123,-0.7114,-0.712,-0.7117,-0.7154,-0.715,-0.7275,-0.7291,-0.7178,-0.7179,-0.718,0,-0.6985,-0.7012,-0.7015,-0.7029,-0.7032,-0.7055,-0.7067,-0.7052,-0.7066,-0.7078,-0.7099,-0.7121,-0.7138,-0.7179,-0.7176,-0.7197,-0.7187,-0.723,-0.719,-0.7194,-0.7188,-0.7186,-0.7188,-0.7237,-0.7239,-0.724,-0.7241,0,-0.7081,-0.7075,-0.7093,-0.711,-0.7125,-0.7138,-0.7149,-0.7162,-0.7148,-0.7165,-0.7189,-0.7203,-0.723,-0.7252,-0.7271,-0.7275,-0.7256,-0.7254,-0.7263,-0.7267,-0.7269,-0.7268,-0.7141,-0.725,-0.7249,-0.7249,-0.7248,-0.7248,-0.7152,-0.7175,-0.7181,-0.7202,-0.7209,-0.722,-0.724,-0.7239,-0.7258,-0.7279,-0.7269,-0.7298,-0.7307,-0.7329,-0.7336,-0.7359,-0.7342,-0.7356,-0.736,-0.7363,-0.7368,-0.7267,-0.7363,-0.7362,-0.7362,-0.7362,-0.7362,0,-0.7246,-0.7249,-0.7269,-0.7285,-0.7302,-0.7283,-0.7295,-0.731,-0.7336,-0.7345,-0.7362,-0.7392,-0.7414,-0.7414,-0.7436,-0.7454,-0.7446,-0.746,-0.7458,-0.7459,-0.7381,-0.7371,-0.7466,-0.7466,-0.7466,-0.7466,-0.7466,-0.7466,-0.7297,-0.7334,-0.7329,-0.737,-0.7373,-0.74,-0.7408,-0.7419,-0.7427,-0.746,-0.7478,-0.7478,-0.7484,-0.7506,-0.7527,-0.7526,-0.7535,-0.7552,-0.7549,-0.7475,-0.7465,-0.7455,-0.7445,-0.7554,-0.7555,-0.7625,-0.7625,-0.7626]},{"header":{"parameterUnit":"m.s-1","parameterCategory":1,"la1":30.2991,"la2":30.254,"lo1":-89.0895,"lo2":-89.0444,"dy":0.0017,"dx":0.0017,"nx":28,"ny":28,"refTime":"2025-11-19T09:00:00:Z","depth":0,"parameterNumber":3,"parameterNumberName":"V-component_of_WINDS"},"data":[0,0,0,0,0,0,0,0,0,0,0,0,0,0,0,0,0,0,0,0,0,0,0,0,0,0,0,0,0,0,0,0,0,0,0,0,0,0,0,0,0,0,0,0,0,0,0,0,0,0,0,0,0,0,0,0,0,0,1.2671,1.267,0,1.2618,1.2617,1.2617,1.2639,1.264,1.2642,1.2643,1.2585,1.2582,1.2579,0,0,0,0,0,0,0,0,0,0,0,0,0,1.2787,1.2784,1.2671,1.267,1.2669,1.2618,1.2617,1.2617,1.2639,1.264,1.2642,1.2643,1.2586,1.2582,1.2579,0,0,0,0,0,0,0,0,0,0,0,0,0,1.2735,1.2784,1.2671,1.2674,1.2674,1.2618,1.2617,1.2616,1.2638,1.264,1.2642,1.2644,1.2587,1.2583,1.2579,1.2515,0,0,1.2566,1.2564,0,0,0,0,0,0,0,0,1.2738,1.2731,1.2674,1.2674,1.2674,1.2637,1.2637,1.2582,1.2638,1.2652,1.2643,1.2645,1.26,1.2595,1.2581,1.2512,1.251,1.2566,1.2563,1.2561,1.256,0,0,0,0,0,0,0,1.2742,1.2733,1.265,1.2674,1.2673,1.2677,1.2672,1.2627,1.2616,1.2651,1.2652,1.2646,1.26,1.2585,1.258,1.2509,1.2566,1.2562,1.256,1.2558,1.2385,1.2383,0,0,0,0,0,0,1.2746,1.2736,1.2651,1.2648,1.2711,1.2674,1.2668,1.2647,1.2616,1.2614,1.2644,1.2647,1.2591,1.2584,1.2578,1.2501,1.2561,1.2558,1.2555,1.2387,1.2384,1.2382,0,0,0,0,0,0,1.2748,1.2738,1.2653,1.2693,1.2682,1.267,1.2646,1.2645,1.2629,1.2612,1.2609,1.2631,1.2592,1.2584,1.2531,1.2499,1.2556,1.2552,1.239,1.2386,1.2383,1.2347,0,0,0,0,0,0,1.2751,1.2739,1.2715,1.2692,1.268,1.2608,1.2644,1.2642,1.2623,1.2626,1.2598,1.2595,1.2593,1.2537,1.2526,1.2494,1.2549,1.2392,1.2388,1.2384,1.235,1.2343,1.2336,0,0,0,0,0,1.2756,1.2706,1.2714,1.2703,1.265,1.2606,1.2599,1.2599,1.262,1.2596,1.2584,1.2596,1.2505,1.2531,1.252,1.2486,1.2394,1.2389,1.2385,1.2354,1.2344,1.2336,0,0,0,0,0,0,1.2724,1.2703,1.2711,1.2653,1.2632,1.261,1.2579,1.2588,1.2559,1.2563,1.2562,1.2556,1.2501,1.2489,1.2518,1.2423,1.2452,1.2445,1.2433,1.2423,1.2416,1.242,1.2545,0,0,0,0,0,1.2711,1.2678,1.2661,1.2611,1.26,1.2591,1.2572,1.2574,1.2551,1.2541,1.2526,1.2502,1.2468,1.2445,1.2413,1.2349,1.2343,1.2321,1.2313,1.2307,1.23,1.2266,1.2255,1.2366,1.2366,1.2366,0,0,1.2682,1.2666,1.2645,1.2604,1.2588,1.2552,1.2583,1.2545,1.2518,1.2535,1.2484,1.2472,1.2445,1.2387,1.236,1.2375,1.2269,1.2301,1.2297,1.2293,1.226,1.2249,1.224,1.2363,1.2364,1.2364,0,0,1.2611,1.2597,1.2554,1.2537,1.2512,1.2507,1.2497,1.2474,1.2467,1.2417,1.2429,1.2397,1.2338,1.2319,1.2301,1.2224,1.2234,1.2214,1.2174,1.214,1.2132,1.2124,1.2096,1.2086,1.2207,1.2207,1.2207,0,1.2578,1.2527,1.253,1.2491,1.2472,1.2487,1.2443,1.2426,1.2391,1.2377,1.2395,1.2322,1.2305,1.2242,1.2223,1.2209,1.2196,1.2216,1.2133,1.2125,1.2118,1.2091,1.208,1.2205,1.2205,1.2206,1.2206,0,1.2487,1.2451,1.2419,1.2387,1.2365,1.2323,1.2319,1.2296,1.23,1.2293,1.2241,1.2221,1.2185,1.2171,1.2174,1.2108,1.2118,1.2134,1.2163,1.2105,1.208,1.2069,1.2202,1.2202,1.2203,1.2204,0,0,1.2393,1.2365,1.2353,1.2339,1.2313,1.2285,1.2244,1.221,1.219,1.2166,1.213,1.2081,1.2096,1.2076,1.2077,1.2047,1.1987,1.2067,1.2066,1.2052,1.1913,1.19,1.1888,1.1994,1.1992,1.1991,1.1915,0,1.232,1.225,1.2252,1.2186,1.2152,1.2167,1.2131,1.2111,1.2103,1.2073,1.2065,1.2029,1.2052,1.204,1.2012,1.2001,1.1959,1.2006,1.196,1.1958,1.1965,1.1875,1.1861,1.179,1.1905,1.1903,1.1902,0,1.2225,1.22,1.2131,1.2111,1.2097,1.2064,1.2034,1.2005,1.1982,1.1979,1.1957,1.1963,1.192,1.1953,1.1893,1.1925,1.1906,1.1898,1.1895,1.189,1.1926,1.1866,1.1768,1.1757,1.1887,1.1888,1.1889,0,1.2163,1.2111,1.2063,1.2051,1.2026,1.2003,1.1991,1.1971,1.1951,1.1924,1.191,1.1878,1.186,1.1835,1.1831,1.1855,1.1771,1.1803,1.1766,1.1766,1.1746,1.1747,1.1643,1.1736,1.1736,1.1737,1.1737,0,1.208,1.2037,1.2035,1.2005,1.1957,1.196,1.1912,1.1902,1.1884,1.1852,1.1862,1.1832,1.183,1.1798,1.1795,1.1746,1.1738,1.1733,1.1732,1.1731,1.1732,1.1718,1.1722,1.1734,1.1734,1.1735,1.1735,0,1.2002,1.1999,1.1947,1.1929,1.1924,1.1889,1.1872,1.1844,1.1838,1.1797,1.1788,1.1778,1.1741,1.1736,1.1692,1.1691,1.1631,1.1636,1.1639,1.1639,1.1602,1.1605,1.1484,1.1468,1.1573,1.1572,1.1571,0,1.1949,1.1916,1.1895,1.1875,1.1863,1.183,1.181,1.1812,1.179,1.1762,1.1736,1.1701,1.1673,1.1613,1.1601,1.1568,1.1572,1.1532,1.1567,1.1567,1.157,1.1572,1.1568,1.1524,1.1523,1.1522,1.1522,0,1.1854,1.1855,1.1826,1.1797,1.1773,1.175,1.1728,1.1711,1.1709,1.1684,1.1648,1.1626,1.1583,1.1547,1.1515,1.1501,1.151,1.1511,1.1501,1.1498,1.1501,1.1498,1.1619,1.1513,1.1514,1.1515,1.1515,1.1516,1.1786,1.1758,1.1739,1.1707,1.1691,1.167,1.1643,1.1634,1.1604,1.157,1.1573,1.1532,1.151,1.1468,1.1452,1.142,1.1433,1.1418,1.1414,1.1409,1.1405,1.1507,1.1414,1.1414,1.1414,1.1415,1.1415,0,1.1691,1.1681,1.1651,1.1621,1.1596,1.1609,1.1586,1.1563,1.1528,1.1507,1.148,1.1438,1.1404,1.139,1.1356,1.1333,1.1336,1.1324,1.1325,1.1321,1.1396,1.1408,1.1322,1.1322,1.1322,1.1322,1.1322,1.1322,1.1639,1.1592,1.1591,1.1536,1.1525,1.1486,1.1472,1.1453,1.1436,1.1389,1.1362,1.1354,1.1336,1.1301,1.127,1.1267,1.1253,1.1239,1.1237,1.1307,1.1316,1.1325,1.1336,1.1236,1.1236,1.1165,1.1164,1.1164]}]]